Weather History for Paris, IL

Change the Weather History Date:

Monday, May 6, 2013

  Actual Average (KHUF) Record (KHUF)
Temperature  
Mean Temperature 60 °F 60 °F  
Max Temperature 68 °F 71 °F 90 °F (1959)
Min Temperature 52 °F 49 °F 30 °F (1968)
Degree Days  
Heating Degree Days 6 6  
Month to date heating degree days 40  
Since 1 July heating degree days 5260  
Cooling Degree Days 0 1  
Month to date cooling degree days 6  
Year to date cooling degree days 21  
Growing Degree Days 10 (Base 50)    
Moisture  
Dew Point 54 °F    
Average Humidity 84    
Maximum Humidity 96    
Minimum Humidity 66    
Precipitation  
Precipitation 0.04 in 0.23 in 1.53 in (1981)
Month to date precipitation 1.41  
Year to date precipitation 13.22  
Sea Level Pressure  
Sea Level Pressure 29.95 in    
Wind  
Wind Speed 4 mph (NNE)    
Max Wind Speed 12 mph    
Max Gust Speed 16 mph    
Visibility 10 miles    
Events Rain    
T = Trace of Precipitation, MM = Missing Value Source: NWS Daily Summary

Daily Weather History Graph

Daily Weather History Graph

Search for Another Location

Airport:

Trip Planner

Search our weather history database for the weather conditions in past years. The results will help you decide how hot, cold, wet, or windy it might be!

Date:

Astronomy

May. 06, 2013 Rise Set
Actual Time 5:45 AM CDT 7:50 PM CDT
Civil Twilight 5:15 AM CDT 8:19 PM CDT
Nautical Twilight 4:39 AM CDT 8:56 PM CDT
Astronomical Twilight 3:59 AM CDT 9:35 PM CDT
Moon 3:46 AM CDT (5/6) 4:50 PM CDT (5/6)
Length of Visible Light 15h 04m
Length of Day
14h 04m
Waning Crescent, 11% of the Moon is Illuminated
May 6
Waning Crescent
May 9
New
May 17
First Quarter
May 24
Full
May 31
Last Quarter

Hourly Weather History & Observations

Time (CDT) Temp. Dew Point Humidity Pressure Visibility Wind Dir Wind Speed Gust Speed Precip Events Conditions
12:15 AM 52.7 °F 51.6 °F 96% 29.96 in 10.0 mi NNW 4.6 mph - N/A   Overcast
12:35 AM 52.5 °F 51.3 °F 95% 29.94 in 10.0 mi NNW 6.9 mph - N/A   Overcast
12:55 AM 52.7 °F 51.4 °F 95% 29.95 in 10.0 mi North 3.5 mph - N/A   Overcast
1:15 AM 52.9 °F 51.8 °F 96% 29.94 in 10.0 mi North 5.8 mph - N/A   Overcast
1:35 AM 53.2 °F 52.0 °F 95% 29.92 in 10.0 mi North 4.6 mph - N/A   Overcast
1:55 AM 53.6 °F 52.0 °F 94% 29.93 in 10.0 mi North 3.5 mph - N/A   Overcast
2:15 AM 53.2 °F 51.8 °F 95% 29.92 in 10.0 mi Calm Calm - N/A   Overcast
2:35 AM 53.6 °F 51.4 °F 92% 29.92 in 10.0 mi NNE 3.5 mph - N/A   Overcast
2:55 AM 53.2 °F 51.3 °F 93% 29.92 in 10.0 mi North 3.5 mph - N/A   Overcast
3:15 AM 53.4 °F 51.3 °F 92% 29.91 in 10.0 mi Calm Calm - N/A   Overcast
3:35 AM 53.1 °F 50.9 °F 92% 29.91 in 10.0 mi North 3.5 mph - N/A   Overcast
3:55 AM 53.2 °F 50.9 °F 92% 29.92 in 10.0 mi Calm Calm - N/A   Overcast
4:15 AM 52.7 °F 50.9 °F 94% 29.92 in 10.0 mi North 3.5 mph - N/A   Overcast
4:35 AM 52.9 °F 50.9 °F 93% 29.92 in 10.0 mi North 3.5 mph - N/A   Overcast
4:55 AM 52.9 °F 50.9 °F 93% 29.92 in 10.0 mi North 3.5 mph - N/A   Overcast
5:15 AM 52.9 °F 50.9 °F 93% 29.93 in 10.0 mi NNW 4.6 mph - N/A   Overcast
5:35 AM 53.2 °F 50.9 °F 92% 29.93 in 10.0 mi North 3.5 mph - N/A   Overcast
5:55 AM 53.6 °F 50.9 °F 91% 29.93 in 10.0 mi North 4.6 mph - N/A   Overcast
6:15 AM 54.0 °F 51.1 °F 90% 29.93 in 10.0 mi North 4.6 mph - N/A   Drizzle
6:35 AM 54.0 °F 51.1 °F 90% 29.94 in 10.0 mi North 5.8 mph - N/A Rain Light Rain
6:55 AM 54.0 °F 51.1 °F 90% 29.96 in 10.0 mi NNE 5.8 mph - N/A Rain Light Rain
7:15 AM 54.0 °F 51.1 °F 90% 29.96 in 10.0 mi NNE 5.8 mph - N/A Rain Light Rain
7:35 AM 54.1 °F 51.3 °F 90% 29.96 in 10.0 mi NE 5.8 mph - 0.01 in Rain Light Rain
7:55 AM 54.5 °F 51.8 °F 91% 29.96 in 10.0 mi NE 4.6 mph - 0.01 in Rain Light Rain
8:15 AM 55.0 °F 52.7 °F 92% 29.97 in 10.0 mi NE 4.6 mph - 0.01 in Rain Light Rain
8:35 AM 55.4 °F 53.1 °F 92% 29.97 in 10.0 mi NE 4.6 mph - 0.02 in Rain Light Rain
8:55 AM 56.7 °F 54.3 °F 92% 29.97 in 10.0 mi NNE 4.6 mph - 0.02 in   Light Drizzle
9:15 AM 57.7 °F 54.5 °F 89% 29.97 in 10.0 mi NE 5.8 mph - N/A Rain Light Rain
9:35 AM 58.3 °F 54.7 °F 88% 29.98 in 10.0 mi NE 6.9 mph - N/A Rain Rain
9:55 AM 58.1 °F 54.3 °F 87% 29.98 in 10.0 mi NE 5.8 mph - N/A Rain Light Rain
10:15 AM 57.6 °F 54.1 °F 88% 29.98 in 10.0 mi NE 6.9 mph - N/A Rain Light Rain
10:35 AM 58.8 °F 55.9 °F 90% 29.98 in 10.0 mi NE 5.8 mph - 0.01 in Rain Light Rain
10:55 AM 60.8 °F 56.5 °F 86% 29.98 in 10.0 mi NE 9.2 mph - 0.01 in   Overcast
11:15 AM 61.3 °F 55.9 °F 82% 29.97 in 10.0 mi NE 8.1 mph - N/A   Overcast
11:35 AM 61.7 °F 54.7 °F 78% 29.97 in 10.0 mi NE 11.5 mph - N/A   Overcast
11:55 AM 61.9 °F 54.5 °F 77% 29.97 in 10.0 mi NE 9.2 mph - N/A   Overcast
12:15 PM 63.5 °F 54.5 °F 72% 29.97 in 10.0 mi NE 8.1 mph - N/A   Mostly Cloudy
12:35 PM 64.6 °F 55.0 °F 71% 29.96 in 10.0 mi NE 11.5 mph - N/A   Scattered Clouds
12:55 PM 65.1 °F 54.9 °F 69% 29.96 in 10.0 mi NE 10.4 mph 16.1 mph N/A   Mostly Cloudy
1:15 PM 64.9 °F 54.3 °F 68% 29.96 in 10.0 mi NE 9.2 mph - N/A   Overcast
1:35 PM 65.7 °F 54.7 °F 68% 29.96 in 10.0 mi NNE 10.4 mph - N/A   Overcast
1:55 PM 65.7 °F 54.7 °F 68% 29.95 in 10.0 mi NE 6.9 mph - N/A   Overcast
2:15 PM 64.6 °F 54.7 °F 70% 29.95 in 10.0 mi NE 6.9 mph - N/A   Overcast
2:35 PM 65.3 °F 55.4 °F 70% 29.95 in 10.0 mi NE 5.8 mph - N/A   Overcast
2:55 PM 65.3 °F 55.2 °F 70% 29.94 in 10.0 mi NNE 5.8 mph - N/A   Overcast
3:15 PM 65.8 °F 55.4 °F 69% 29.93 in 10.0 mi NE 5.8 mph - N/A   Overcast
3:55 PM 67.8 °F 55.9 °F 66% 29.92 in 10.0 mi NNE 6.9 mph - N/A   Mostly Cloudy
4:15 PM 67.5 °F 56.1 °F 67% 29.92 in 10.0 mi NE 4.6 mph - N/A   Overcast
4:35 PM 66.4 °F 55.4 °F 68% 29.92 in 10.0 mi NE 4.6 mph - N/A   Overcast
4:55 PM 66.6 °F 56.1 °F 69% 29.92 in 10.0 mi ENE 4.6 mph - N/A   Overcast
5:15 PM 66.0 °F 57.2 °F 73% 29.92 in 10.0 mi Calm Calm - N/A   Overcast
5:35 PM 66.2 °F 57.2 °F 73% 29.92 in 10.0 mi Calm Calm - N/A   Overcast
5:55 PM 65.3 °F 58.3 °F 78% 29.93 in 10.0 mi Calm Calm - N/A   Overcast
6:15 PM 63.9 °F 58.5 °F 83% 29.94 in 10.0 mi Calm Calm - N/A   Overcast
6:35 PM 64.6 °F 56.7 °F 75% 29.94 in 10.0 mi Calm Calm - N/A   Overcast
6:55 PM 64.4 °F 57.4 °F 78% 29.95 in 10.0 mi ENE 3.5 mph - N/A   Overcast
7:15 PM 63.9 °F 56.7 °F 77% 29.96 in 10.0 mi Calm Calm - N/A   Overcast
7:35 PM 63.1 °F 57.4 °F 81% 29.96 in 10.0 mi Calm Calm - N/A   Overcast
7:55 PM 62.8 °F 56.7 °F 80% 29.97 in 10.0 mi Calm Calm - N/A   Overcast
8:15 PM 62.1 °F 57.0 °F 84% 29.97 in 10.0 mi Calm Calm - N/A   Overcast
8:35 PM 61.7 °F 57.2 °F 85% 29.97 in 10.0 mi Calm Calm - N/A   Scattered Clouds
8:55 PM 59.9 °F 56.1 °F 87% 29.98 in 10.0 mi Calm Calm - N/A   Clear
9:15 PM 58.6 °F 55.6 °F 90% 29.98 in 10.0 mi Calm Calm - N/A   Mostly Cloudy
9:35 PM 58.3 °F 55.6 °F 91% 29.99 in 10.0 mi Calm Calm - N/A   Mostly Cloudy
9:55 PM 58.1 °F 55.6 °F 91% 29.99 in 10.0 mi NNE 3.5 mph - N/A   Scattered Clouds
10:15 PM 58.5 °F 55.0 °F 88% 29.99 in 10.0 mi ENE 5.8 mph - N/A   Scattered Clouds
10:35 PM 59.2 °F 54.7 °F 85% 29.99 in 10.0 mi NE 3.5 mph - N/A   Mostly Cloudy
10:55 PM 59.5 °F 55.0 °F 85% 29.99 in 10.0 mi NE 4.6 mph - N/A   Overcast
11:15 PM 59.9 °F 55.0 °F 84% 29.99 in 10.0 mi East 5.8 mph - N/A   Overcast
11:35 PM 59.5 °F 55.2 °F 86% 29.99 in 10.0 mi East 4.6 mph - N/A   Overcast
11:55 PM 59.2 °F 55.0 °F 86% 29.99 in 10.0 mi NE 3.5 mph - N/A   Overcast